Date String (YYYY-MM-DD hh:mm:ss) UTC,Instrument flags,absolute air pressure of the measurement (hPa),sample flow rate (lpm),inlet stack bypass flow (lpm),air temperature of the measurement (°C),ambient temperature measured by the external sensor (°C),aerosol sample conditioner tube jacket temperature (°C),OPC LED temperature (°C),internal box temperature (°C),relative humidity of the measurement (%),span deviation,mass concentration of particles derived from Lorenz-Mie calculation of OPC scattering (μg/m³),mass concentration of particles derived from Lorenz-Mie calculation of OPC scattering (μg/m³),mass concentration of particles derived from Lorenz-Mie calculation of OPC scattering (μg/m³)
DateTimeUTC,F1_M11,P_M11,Q1_M11,Q2_M11,T1_M11,T2_M11,T3_M11,T4_M11,T5_M11,U1_M11,ZSPAN_M11,X0_M11,X2_M11,X1_M11
2023-09-13 21:00:00,SystemResetWarning,0829.1,5.01,000.00,027.7,024.9,000.0,036.0,029.1,18.4,0001.8,0010.64,0005.30,0004.72
2023-09-13 21:01:00,SystemResetWarning,0829.1,5.00,000.00,027.7,025.1,000.0,036.0,029.1,18.4,0001.8,0010.29,0005.28,0004.69
2023-09-13 21:02:00,SystemResetWarning,0829.1,4.99,000.00,027.7,025.4,000.0,036.0,029.2,18.6,0002.3,0010.22,0005.27,0004.65
2023-09-13 21:03:00,SystemResetWarning,0829.1,5.00,000.00,027.7,025.7,000.0,036.0,029.3,18.6,0001.5,0010.44,0005.28,0004.62
2023-09-13 21:04:00,SystemResetWarning,0829.1,5.00,000.00,027.7,026.0,000.0,036.0,029.3,18.5,0000.3,0010.57,0005.27,0004.60
2023-09-13 21:05:00,SystemResetWarning,0829.1,5.01,000.00,027.8,026.3,000.0,036.1,029.4,19.2,0000.0,0009.88,0005.22,0004.59
2023-09-13 21:06:00,SystemResetWarning,0829.1,5.01,000.00,027.8,026.5,000.0,036.1,029.5,18.9,0000.0,0009.76,0005.19,0004.56
2023-09-13 21:07:00,SystemResetWarning,0829.1,4.99,000.00,027.8,026.7,000.0,036.1,029.6,18.6,0000.0,0009.69,0005.17,0004.55
2023-09-13 21:08:00,SystemResetWarning,0829.1,4.99,000.00,027.9,026.9,000.0,036.1,029.6,18.3,0000.0,0009.80,0005.13,0004.53
2023-09-13 21:09:00,SystemResetWarning,0829.1,4.99,000.00,027.9,026.5,000.0,036.1,029.6,18.4,0000.0,0010.48,0005.10,0004.50
2023-09-13 21:10:00,SystemResetWarning,0829.1,5.01,000.00,027.8,024.8,000.0,036.1,029.1,18.3,0000.0,0010.66,0005.09,0004.47
2023-09-13 21:11:00,SystemResetWarning,0829.1,5.00,000.00,027.7,023.9,000.0,036.0,028.9,18.3,0000.0,0010.47,0005.04,0004.43
2023-09-13 21:12:00,SystemResetWarning,0829.1,5.00,000.00,027.6,024.1,000.0,036.0,028.9,18.1,0000.0,0010.32,0004.99,0004.39
2023-09-13 21:13:00,SystemResetWarning,0829.1,5.02,000.00,027.6,024.4,000.0,036.0,028.9,18.0,0000.0,0010.52,0004.97,0004.37
2023-09-13 21:14:00,SystemResetWarning,0829.1,5.00,000.00,027.6,024.8,000.0,036.0,029.0,18.8,0000.0,0011.41,0004.92,0004.35
2023-09-13 21:15:00,SystemResetWarning,0829.0,4.99,000.00,027.6,025.2,000.0,036.0,029.1,18.6,0000.0,0011.53,0004.89,0004.32
2023-09-13 21:16:00,SystemResetWarning,0829.1,5.00,000.00,027.6,025.6,000.0,036.0,029.2,18.3,0000.0,0011.56,0004.83,0004.27
2023-09-13 21:17:00,SystemResetWarning,0829.0,5.00,000.00,027.6,025.9,000.0,036.0,029.3,18.3,0000.0,0011.72,0004.78,0004.23
2023-09-13 21:18:00,SystemResetWarning,0829.1,5.00,000.00,027.7,026.2,000.0,036.0,029.3,18.3,0000.0,0012.12,0004.73,0004.18
2023-09-13 21:19:00,SystemResetWarning,0829.1,5.00,000.00,027.7,026.5,000.0,036.0,029.4,18.0,0000.0,0012.29,0004.66,0004.13
2023-09-13 21:20:00,SystemResetWarning,0829.0,5.00,000.00,027.8,026.7,000.0,036.1,029.5,18.4,0000.0,0012.35,0004.65,0004.12
2023-09-13 21:21:00,SystemResetWarning,0829.0,5.00,000.00,027.8,026.8,000.0,036.1,029.6,18.1,0000.0,0012.71,0004.63,0004.11
2023-09-13 21:22:00,SystemResetWarning,0829.0,5.00,000.00,027.9,026.8,000.0,036.1,029.6,18.1,0000.0,0012.73,0004.62,0004.11
2023-09-13 21:23:00,SystemResetWarning,0829.0,4.99,000.00,027.8,025.5,000.0,036.0,029.2,18.5,0000.0,0012.75,0004.61,0004.12
2023-09-13 21:24:00,SystemResetWarning,0829.0,5.01,000.00,027.8,024.9,000.0,036.0,029.2,18.0,0000.0,0012.54,0004.60,0004.12
2023-09-13 21:25:00,SystemResetWarning,0829.0,5.00,000.00,027.7,025.0,000.0,036.0,029.1,17.7,0000.0,0011.48,0004.61,0004.12
2023-09-13 21:26:00,SystemResetWarning,0828.9,5.00,000.00,027.7,025.3,000.0,036.0,029.1,18.2,0000.0,0011.10,0004.61,0004.13
2023-09-13 21:27:00,SystemResetWarning,0829.0,4.99,000.00,027.7,025.6,000.0,036.1,029.2,18.3,0000.0,0010.99,0004.59,0004.12
2023-09-13 21:28:00,SystemResetWarning,0829.0,5.00,000.00,027.7,025.9,000.0,036.1,029.3,18.2,0000.0,0010.85,0004.60,0004.13
2023-09-13 21:29:00,SystemResetWarning,0829.0,4.99,000.00,027.8,026.2,000.0,036.1,029.4,17.9,0000.0,0010.46,0004.61,0004.14
2023-09-13 21:30:00,SystemResetWarning,0829.0,5.00,000.00,027.8,026.4,000.0,036.1,029.5,17.3,0000.0,0010.40,0004.62,0004.14
2023-09-13 21:31:00,SystemResetWarning,0829.0,5.01,000.00,027.9,026.7,000.0,036.1,029.5,17.5,0000.0,0009.73,0004.62,0004.14
2023-09-13 21:32:00,SystemResetWarning,0828.9,4.99,000.00,027.9,026.2,000.0,036.1,029.4,17.6,0000.0,0009.39,0004.58,0004.12
2023-09-13 21:33:00,SystemResetWarning,0828.9,4.99,000.00,027.8,024.5,000.0,036.0,028.9,17.7,0000.0,0009.68,0004.56,0004.10
2023-09-13 21:34:00,SystemResetWarning,0829.0,5.02,000.00,027.7,023.8,000.0,036.0,028.8,17.6,0000.0,0010.48,0004.52,0004.07
2023-09-13 21:35:00,SystemResetWarning,0829.0,5.00,000.00,027.6,024.1,000.0,036.0,028.9,18.5,0000.0,0010.83,0004.51,0004.05
2023-09-13 21:36:00,SystemResetWarning,0829.0,5.00,000.00,027.5,024.5,000.0,036.0,028.9,17.5,0000.0,0010.81,0004.48,0004.04
2023-09-13 21:37:00,SystemResetWarning,0829.0,5.00,000.00,027.5,024.9,000.0,036.0,029.0,17.2,0000.0,0010.46,0004.46,0004.03
2023-09-13 21:38:00,SystemResetWarning,0828.9,5.00,000.00,027.6,025.3,000.0,036.0,029.1,17.4,0000.0,0010.21,0004.46,0004.04
2023-09-13 21:39:00,SystemResetWarning,0828.9,5.00,000.00,027.6,025.7,000.0,036.0,029.2,17.6,0000.0,0010.77,0004.48,0004.06
2023-09-13 21:40:00,SystemResetWarning,0828.9,5.00,000.00,027.6,026.0,000.0,036.0,029.3,17.7,0000.5,0010.80,0004.49,0004.07
2023-09-13 21:41:00,SystemResetWarning,0829.0,5.00,000.00,027.7,026.3,000.0,036.0,029.4,16.8,0000.8,0010.99,0004.52,0004.07
2023-09-13 21:42:00,SystemResetWarning,0829.0,5.00,000.00,027.7,026.5,000.0,036.0,029.4,16.6,0000.0,0010.69,0004.55,0004.07
2023-09-13 21:43:00,SystemResetWarning,0829.0,5.00,000.00,027.8,026.7,000.0,036.0,029.5,16.2,0000.0,0010.63,0004.56,0004.08
2023-09-13 21:44:00,SystemResetWarning,0829.1,5.00,000.00,027.8,026.9,000.0,036.1,029.6,16.5,0000.0,0010.86,0004.58,0004.10
2023-09-13 21:45:00,SystemResetWarning,0829.1,5.01,000.00,027.9,026.8,000.0,036.1,029.6,16.6,0000.0,0010.18,0004.58,0004.12
2023-09-13 21:46:00,SystemResetWarning,0829.0,4.99,000.00,027.8,025.4,000.0,036.1,029.1,16.8,0000.0,0010.21,0004.61,0004.13
2023-09-13 21:47:00,SystemResetWarning,0828.9,5.01,000.00,027.7,024.1,000.0,036.0,028.8,16.8,0000.0,0009.96,0004.63,0004.15
2023-09-13 21:48:00,SystemResetWarning,0828.9,5.01,000.00,027.6,024.1,000.0,035.9,028.9,17.5,0000.0,0010.67,0004.67,0004.14
2023-09-13 21:49:00,SystemResetWarning,0828.9,4.99,000.00,027.6,024.4,000.0,035.9,028.9,18.1,0000.0,0010.88,0004.73,0004.15
2023-09-13 21:50:00,SystemResetWarning,0829.0,5.00,000.00,027.5,024.8,000.0,035.9,029.0,17.9,0000.0,0011.00,0004.74,0004.16
2023-09-13 21:51:00,SystemResetWarning,0829.0,5.00,000.00,027.5,025.2,000.0,036.0,029.1,16.8,0000.0,0010.43,0004.76,0004.16
2023-09-13 21:52:00,SystemResetWarning,0829.0,5.00,000.00,027.6,025.6,000.0,036.0,029.1,15.8,0000.0,0010.25,0004.74,0004.16
2023-09-13 21:53:00,SystemResetWarning,0829.1,5.00,000.00,027.6,025.9,000.0,036.0,029.2,15.5,0000.0,0010.10,0004.72,0004.15
2023-09-13 21:54:00,SystemResetWarning,0829.1,4.99,000.00,027.7,026.2,000.0,036.0,029.3,15.7,0000.0,0010.23,0004.66,0004.13
2023-09-13 21:55:00,SystemResetWarning,0829.1,4.99,000.00,027.7,026.4,000.0,036.0,029.4,15.6,0000.0,0010.85,0004.66,0004.12
2023-09-13 21:56:00,SystemResetWarning,0829.1,5.00,000.00,027.8,026.6,000.0,036.0,029.5,16.0,0000.0,0011.41,0004.68,0004.12
2023-09-13 21:57:00,SystemResetWarning,0829.1,5.00,000.00,027.8,026.8,000.0,036.1,029.6,16.0,0000.0,0010.96,0004.69,0004.13
2023-09-13 21:58:00,SystemResetWarning,0829.1,5.01,000.00,027.9,026.9,000.0,036.1,029.6,15.0,0000.0,0010.56,0004.65,0004.12
2023-09-13 21:59:00,SystemResetWarning,0829.0,4.99,000.00,027.9,025.9,000.0,036.0,029.3,14.7,0000.0,0010.39,0004.64,0004.13
